Wind_Speed
15 15 15 16 16 16 16 15 15 15 15 13 7 8 13 13 9 13 13 7 9 13 8 3 4 4 3 3 3 3 2 3 4 5 5 3 3 3 3 1 2 2 1 1 1 2 2 2 3 3 2 2 2 4 7 6 3 3 1 1 2 2 1 3 3 1 3 4 4 2 2 2 4 6 6 3 2 2 3 3 3 3 3 2 3 4 0
15 15 15 16 16 16 16 16 16 16 15 13 8 9 14 17 17 20 16 6 7 9 4 1 3 2 2 4 4 5 6 6 5 4 5 4 2 2 2 2 2 2 1 1 2 2 2 3 3 2 2 2 2 4 6 5 4 3 1 2 4 2 1 3 4 2 0 2 2 2 2 1 3 3 4 4 2 3 2 1 2 2 2 3 5 5 1
15 16 15 16 16 16 17 17 16 16 16 14 9 8 10 10 13 20 22 15 13 10 6 5 4 2 3 4 3 3 5 6 7 5 5 5 4 2 1 2 2 2 0 1 4 4 3 3 2 2 2 2 2 4 5 5 5 4 0 2 3 2 1 2 3 4 4 4 3 3 3 3 2 3 5 6 4 3 2 1 2 1 2 3 4 4 2
15 16 16 16 17 17 17 18 17 16 16 14 10 7 6 4 3 8 16 21 23 17 10 8 6 3 3 3 3 3 2 3 5 6 5 6 6 5 4 2 2 2 2 1 4 6 5 3 3 2 3 2 2 4 4 4 7 4 2 3 1 1 1 3 2 2 4 5 4 4 4 4 2 4 6 7 5 3 2 1 2 2 4 4 0 1 6
15 16 17 17 17 18 18 18 17 16 15 13 10 9 8 5 2 2 4 11 17 16 13 10 5 2 2 2 2 3 2 1 3 4 4 5 5 4 5 5 2 2 3 1 3 4 3 4 3 1 2 3 3 4 2 4 9 4 1 5 2 2 2 3 1 3 3 3 3 2 3 2 2 3 4 6 7 4 2 2 2 3 4 4 1 1 8
16 17 17 17 18 18 18 18 17 15 15 12 9 11 9 5 4 4 4 3 4 5 9 11 8 6 4 2 1 3 3 3 3 3 2 3 5 3 3 6 6 2 2 1 2 2 2 3 2 1 1 3 4 3 1 3 11 6 2 6 3 1 2 2 1 3 3 2 2 1 1 3 4 3 3 5 6 5 4 3 1 2 4 7 7 7 10
16 17 17 18 18 17 17 17 17 15 14 12 9 11 12 11 9 7 8 7 4 3 4 7 9 8 5 3 2 3 4 4 2 2 2 2 5 5 2 4 7 5 2 1 1 2 1 3 1 1 1 2 3 3 0 2 10 9 3 5 4 0 1 2 1 3 3 1 0 1 2 4 4 4 4 4 3 3 2 2 2 3 6 9 10 11 11
16 17 17 17 17 17 16 17 17 16 13 12 11 11 10 11 10 10 13 12 9 7 4 4 6 6 5 4 2 2 3 3 1 2 4 2 4 5 3 3 5 6 5 3 4 3 3 3 2 2 2 1 1 2 1 2 7 8 3 2 4 3 2 2 1 3 2 2 1 1 3 3 3 3 4 4 2 1 0 1 2 4 8 9 9 11 9
16 16 16 16 16 16 16 16 17 16 13 11 13 14 13 13 13 13 15 9 8 7 5 3 2 3 4 3 1 1 2 2 2 2 4 4 3 4 2 3 2 5 7 8 6 4 2 3 2 1 1 2 1 1 1 2 4 5 3 2 4 4 2 1 0 3 1 2 1 1 2 3 2 1 3 5 3 1 2 3 3 5 9 10 9 9 5
16 15 15 16 16 16 17 16 16 15 13 12 12 12 13 13 12 11 12 7 6 6 3 3 2 2 2 3 1 1 2 1 2 2 3 5 6 4 1 2 1 3 6 6 4 2 2 4 3 4 6 8 8 6 6 4 2 2 1 1 2 2 1 1 2 4 2 1 1 1 3 2 1 1 2 3 3 3 4 6 6 6 6 6 7 6 4
15 15 16 16 17 17 16 16 16 14 12 12 12 10 10 11 12 12 13 8 6 7 3 2 3 1 0 2 2 2 4 2 0 1 2 3 6 5 2 4 2 3 3 2 2 4 8 8 9 12 13 13 13 10 9 9 8 4 1 0 1 1 1 1 1 3 3 5 5 2 2 2 2 3 2 2 4 5 5 8 12 10 5 4 6 5 4
15 16 17 17 17 17 16 16 16 14 13 13 11 9 9 9 9 9 10 7 3 6 4 2 3 2 2 3 3 3 5 5 5 5 5 3 5 7 5 3 2 3 4 5 8 10 11 10 9 9 8 7 7 7 9 11 10 8 5 1 1 1 1 1 0 2 3 5 6 3 2 3 2 4 1 3 5 6 8 13 14 9 6 6 6 5 5
16 17 17 17 17 16 16 17 16 14 13 13 11 9 10 10 10 12 17 12 2 3 4 3 4 6 6 6 6 6 7 9 9 10 8 5 5 7 7 5 3 6 11 11 9 8 6 4 3 3 1 1 1 1 5 8 7 8 9 6 2 1 2 1 0 1 2 2 4 4 3 2 2 3 2 2 2 4 7 11 9 6 5 5 5 6 8
16 17 17 17 17 17 17 17 16 15 14 14 12 10 10 11 11 12 16 13 2 1 5 5 3 6 7 6 7 7 7 8 8 8 7 7 6 6 7 6 7 11 13 9 4 2 1 1 0 2 2 0 1 1 1 3 4 6 8 8 5 1 1 0 1 2 2 2 2 3 3 0 2 3 1 0 2 4 6 7 4 5 6 4 4 6 10
16 17 17 17 17 18 18 17 16 15 16 15 13 12 12 12 10 8 13 18 11 3 3 3 2 4 5 5 5 5 4 4 4 5 5 6 6 6 6 6 7 10 11 5 1 1 0 0 0 1 1 1 1 1 1 0 2 3 4 7 7 5 2 2 1 1 1 2 2 3 3 1 1 3 4 2 2 4 3 5 5 5 9 3 5 8 12
16 16 17 17 18 18 18 17 16 16 17 16 13 13 13 12 12 10 14 19 15 4 1 2 5 7 6 5 6 4 2 2 2 2 2 3 3 5 5 5 5 7 9 4 1 2 1 0 1 0 1 1 2 2 2 2 1 1 3 4 7 6 3 1 1 1 1 1 3 2 2 2 2 4 4 1 2 2 4 4 3 5 7 4 7 9 12
16 16 17 18 19 19 18 17 16 17 18 16 11 11 13 12 11 9 11 17 16 7 2 4 5 6 5 3 4 4 2 3 2 1 1 2 2 3 3 3 4 5 7 3 2 2 2 1 1 1 1 1 1 3 2 2 3 1 1 2 4 4 3 2 2 2 1 1 2 2 3 1 3 5 3 1 1 5 4 5 3 4 5 6 6 9 12
16 16 17 18 18 18 17 16 16 17 17 15 12 12 14 14 12 9 11 19 19 8 4 7 7 5 4 3 4 4 3 3 3 1 2 2 2 2 2 3 3 3 4 2 0 1 2 1 0 1 1 1 1 2 2 1 2 2 2 3 2 1 2 1 2 1 1 2 2 3 3 0 4 4 1 1 4 5 3 7 4 1 4 6 6 10 12
15 15 17 18 18 18 17 16 17 18 17 15 12 13 16 15 13 9 8 17 21 12 7 11 10 8 8 8 7 6 4 4 3 2 1 1 1 2 3 3 2 1 2 2 1 1 1 0 1 1 1 1 1 1 1 1 1 1 1 2 1 0 1 0 0 0 1 1 2 4 3 2 5 3 1 3 3 3 4 6 7 6 8 9 9 11 11
15 15 17 17 17 18 18 18 19 20 19 17 12 11 17 16 12 10 7 15 28 25 15 14 14 12 12 11 9 8 6 5 4 2 1 1 3 3 2 1 1 1 1 1 1 1 1 1 1 1 1 1 0 0 1 1 1 1 0 1 1 0 1 1 1 1 1 1 2 4 4 3 7 2 1 5 4 6 10 11 12 10 9 11 12 11 11
14 15 17 17 17 18 18 19 20 20 21 18 10 9 17 17 14 14 8 8 23 26 17 15 18 16 15 14 12 10 8 7 5 5 4 4 3 3 1 0 1 1 1 1 1 1 1 1 1 1 1 0 0 1 1 1 1 0 0 1 2 2 1 1 1 2 1 1 1 1 2 3 5 3 4 5 7 12 15 15 13 10 9 12 13 11 12
14 15 17 16 17 18 18 19 20 20 21 19 12 10 17 18 17 16 8 7 21 28 21 19 21 18 16 16 14 12 11 9 8 7 7 6 5 3 2 2 2 1 2 2 1 0 1 2 1 1 1 1 1 1 0 1 1 0 1 2 2 3 2 1 2 3 2 4 7 7 6 7 9 10 9 10 13 17 17 14 13 12 12 13 14 13 14
14 15 16 16 17 17 18 19 20 20 21 19 15 15 18 17 15 12 6 11 27 32 24 19 18 16 16 16 14 13 13 10 9 8 6 5 5 3 3 2 1 1 2 2 1 0 3 3 1 1 1 1 1 1 1 2 2 1 2 3 3 3 3 2 1 2 5 11 15 16 15 14 13 13 13 14 15 16 16 15 14 13 14 16 17 16 16
13 14 15 16 16 16 17 18 19 20 20 18 17 17 17 16 14 11 8 12 22 23 17 14 13 13 14 15 13 13 12 11 10 9 7 5 4 2 2 1 1 2 2 2 1 2 4 3 2 1 1 2 3 1 1 2 2 1 1 2 2 4 6 4 2 2 3 5 7 8 9 12 12 13 14 15 15 15 16 17 16 16 17 18 18 17 17
13 13 14 14 14 15 17 18 19 19 19 18 16 16 16 15 13 11 9 10 14 14 11 9 11 12 13 12 12 12 11 11 10 8 7 6 5 3 3 2 2 3 2 2 3 3 3 2 2 1 1 3 4 2 1 1 1 1 2 2 1 4 7 5 4 4 5 7 8 9 14 18 17 15 13 12 14 16 17 18 19 19 18 18 18 18 18
12 12 12 12 12 13 14 16 18 19 19 18 16 15 15 15 14 12 10 9 11 13 11 6 6 10 10 10 11 11 9 9 9 8 7 6 5 5 5 4 3 3 2 2 2 3 2 3 3 1 1 4 5 2 1 1 1 1 3 3 2 5 6 4 3 4 7 10 11 11 13 14 12 11 11 13 15 17 18 20 20 19 18 18 19 19 18
12 12 12 12 11 11 11 12 14 16 17 17 17 16 15 15 14 12 10 7 5 6 7 5 6 9 9 8 8 8 8 8 8 7 7 6 5 4 3 3 2 1 1 1 1 2 2 2 1 1 2 4 5 2 0 1 1 1 3 3 6 6 4 3 2 3 5 5 4 4 6 8 8 9 13 16 18 19 20 21 20 19 18 19 18 18 18
11 11 12 12 12 11 11 11 10 10 11 13 15 16 16 16 15 12 12 11 7 5 12 14 11 9 7 6 5 6 6 6 6 6 6 5 4 4 3 2 1 1 3 3 3 3 2 1 2 3 4 5 4 2 1 0 1 2 4 8 13 11 7 6 5 5 7 10 11 9 9 10 13 15 17 19 21 21 21 19 18 18 19 19 18 18 18
10 10 11 12 12 12 12 12 11 10 9 8 9 12 15 17 16 13 13 13 9 8 17 18 11 5 4 4 3 3 3 3 3 3 4 4 4 4 3 2 2 2 2 3 3 3 2 2 4 5 4 4 3 1 0 1 2 3 5 10 15 14 13 14 13 12 13 16 18 15 13 14 16 20 22 22 22 21 19 19 19 19 20 19 18 17 18
9 9 10 10 10 11 12 12 12 12 11 9 7 8 11 14 16 14 13 11 8 5 10 11 6 4 4 4 2 2 2 2 3 3 4 4 4 4 3 3 3 3 3 3 3 3 3 3 5 5 5 6 4 1 1 2 2 4 7 11 13 13 15 17 18 16 16 18 19 18 18 19 21 22 23 21 20 20 19 19 20 20 20 19 18 17 18
8 8 8 8 8 8 9 11 12 12 12 12 10 7 6 8 11 12 12 10 7 5 6 9 8 6 4 3 3 3 3 4 4 4 5 6 6 6 5 4 4 4 4 4 4 4 4 4 5 6 6 7 5 2 1 2 1 5 7 10 11 12 13 15 16 17 19 20 21 21 22 23 22 21 20 20 20 20 20 20 20 19 19 18 18 18 18
7 7 6 6 7 7 8 9 10 10 10 12 13 12 9 9 10 10 10 10 9 5 4 7 6 3 0 0 2 3 5 5 5 5 7 7 7 7 7 7 6 5 5 4 4 4 4 4 5 6 7 6 4 2 1 2 3 7 10 9 9 11 12 12 14 16 18 19 19 18 18 19 19 18 19 21 23 22 20 20 20 20 19 18 18 18 19
6 6 6 6 7 7 7 8 9 8 8 9 11 12 13 12 12 11 9 8 8 7 5 4 3 1 1 1 2 2 6 6 5 7 7 7 7 7 6 6 6 6 5 4 3 3 3 4 4 5 5 5 4 1 1 5 11 17 16 12 10 11 11 12 14 16 17 18 17 16 16 18 19 21 21 23 23 21 20 21 20 19 19 18 18 18 19
5 5 5 6 6 6 6 6 7 6 7 7 8 9 10 11 12 13 11 7 5 7 7 5 3 1 1 2 2 2 6 8 6 6 6 6 7 6 5 5 5 4 4 4 3 3 3 4 4 3 4 3 2 1 2 9 17 20 17 14 14 13 12 13 15 15 16 16 16 17 19 20 21 22 22 22 21 21 21 21 20 19 19 19 18 18 18
4 4 4 4 5 5 5 5 5 5 5 6 6 7 7 7 7 11 12 9 5 4 5 5 4 2 1 2 0 2 8 10 7 5 5 6 6 6 5 4 3 3 3 3 3 2 2 3 3 3 3 2 2 3 6 10 14 14 12 13 13 12 12 13 13 13 13 14 15 17 18 19 21 22 22 21 21 20 21 21 20 20 19 19 18 17 18
3 3 3 4 4 4 5 5 4 4 4 5 5 5 6 5 5 6 8 9 8 5 4 3 3 2 0 1 2 6 10 10 7 7 6 4 4 4 3 2 2 2 3 2 1 1 2 4 4 2 1 2 4 8 10 11 11 10 11 11 11 10 12 13 12 13 14 15 16 17 18 19 21 21 20 19 19 19 20 21 20 19 20 20 18 17 17
3 3 4 4 4 4 4 4 5 5 4 5 5 5 4 4 3 3 3 5 7 8 7 5 3 2 0 1 3 8 10 8 6 6 4 3 4 3 2 1 1 2 3 2 0 1 2 4 3 1 2 6 12 15 15 14 13 12 12 11 11 12 13 13 13 14 15 15 17 17 18 19 20 19 19 18 18 18 19 20 19 19 20 19 18 17 17
3 3 4 5 5 4 3 5 6 5 5 6 6 4 3 4 2 1 3 4 4 6 8 6 3 1 1 2 4 8 8 6 5 4 2 3 5 3 1 1 1 2 2 1 1 1 1 1 0 1 6 14 21 22 20 18 18 17 16 14 14 13 13 13 13 13 14 15 17 17 17 19 20 19 18 18 17 18 18 19 18 18 19 18 17 17 17
3 4 4 4 5 4 4 6 7 6 6 6 5 2 3 4 2 1 4 4 3 3 6 5 2 1 1 2 4 6 6 5 4 3 1 2 3 2 1 1 2 2 2 1 1 1 1 1 0 1 5 10 14 14 12 12 13 15 16 16 15 15 14 13 13 13 13 15 16 16 17 19 20 19 18 18 17 17 17 17 17 18 17 17 17 17 16
3 4 5 4 4 4 5 7 7 6 5 4 3 2 2 4 3 2 3 3 2 2 4 4 1 1 2 3 3 4 6 5 3 2 1 2 2 2 2 2 2 2 2 2 0 1 1 1 1 1 3 5 6 7 7 7 8 11 13 14 15 15 14 13 13 13 14 15 15 16 16 17 18 18 18 17 17 17 16 16 17 17 17 17 17 16 16
4 5 5 5 4 6 7 7 7 5 3 2 2 2 2 3 3 3 3 2 0 2 3 2 1 2 3 4 4 4 5 5 3 2 2 2 2 2 1 1 2 2 2 3 1 2 0 1 1 2 6 8 7 5 5 7 9 11 13 14 14 14 14 13 13 13 14 14 15 15 16 16 17 17 17 17 17 16 16 16 16 16 16 17 16 16 16
4 5 6 6 6 7 6 5 4 4 2 1 2 2 1 1 3 3 1 0 2 3 3 2 3 4 6 6 5 5 5 4 2 2 1 1 2 1 0 1 2 1 2 3 2 3 1 2 2 5 9 10 8 7 7 10 12 13 14 15 14 14 14 14 14 13 14 14 15 15 16 16 16 16 17 17 17 16 15 15 16 16 17 16 16 16 16
5 5 6 6 6 5 4 3 3 3 2 1 2 2 2 2 1 0 1 3 3 2 2 3 4 5 6 6 5 5 5 4 3 2 1 1 2 1 1 1 1 1 2 2 2 1 1 2 3 5 6 5 6 7 9 12 14 15 16 16 15 15 15 14 14 14 14 14 14 15 15 16 16 16 16 17 17 17 16 16 16 16 17 17 16 16 16
5 6 6 4 4 3 3 2 2 2 2 1 1 0 2 3 2 1 2 3 3 3 3 4 4 4 5 6 5 4 3 2 2 1 1 2 2 1 1 1 1 1 1 1 1 1 2 4 8 13 14 11 9 10 12 13 15 17 17 16 16 15 15 15 14 14 14 14 14 15 15 16 16 16 16 17 17 17 17 16 16 17 17 17 16 16 16
5 5 4 2 2 3 2 1 2 2 0 1 2 3 3 3 3 3 3 4 4 4 5 6 5 5 6 6 4 2 2 1 1 1 1 1 1 0 1 2 1 1 1 0 1 2 2 4 10 16 15 11 10 11 13 14 15 16 17 17 16 15 15 15 15 14 14 14 14 15 15 15 16 17 17 17 17 17 17 17 17 17 18 17 16 16 16
4 4 2 0 1 2 1 0 1 1 2 4 4 5 5 6 6 5 6 6 6 6 7 7 5 5 5 4 2 2 2 1 1 1 1 1 0 2 2 1 1 1 1 1 3 4 4 5 9 10 9 7 11 14 16 16 16 16 17 17 15 14 15 15 15 14 14 14 15 15 15 15 16 17 17 17 17 18 18 17 17 18 19 18 17 16 16
5 3 2 0 1 1 1 2 3 3 4 6 7 8 9 10 10 10 9 9 9 8 7 6 5 4 4 2 2 2 2 0 0 1 1 1 1 1 1 1 1 1 2 3 4 4 5 7 10 9 8 10 15 17 17 17 17 17 17 16 15 15 15 15 15 15 14 14 15 15 14 15 16 17 18 17 17 17 17 18 18 19 19 19 18 17 17
5 3 2 1 2 2 3 4 5 6 7 9 10 11 12 12 12 11 10 10 9 7 6 5 4 3 2 1 1 1 0 0 1 2 1 1 1 2 1 2 2 3 3 4 4 5 6 11 13 11 11 15 18 19 18 18 18 17 17 17 16 15 15 15 15 15 14 15 15 15 14 15 16 17 17 18 17 17 17 18 19 19 19 19 19 18 18
6 5 4 3 3 4 5 6 7 9 11 12 11 11 12 12 12 11 10 9 8 7 6 5 3 2 1 0 1 0 1 1 1 0 1 0 1 1 1 1 3 4 3 4 6 8 12 16 15 14 17 19 20 20 20 19 18 17 17 17 16 15 15 16 16 15 15 15 15 15 15 16 16 16 17 18 18 17 17 18 19 19 19 19 20 20 19
7 6 6 5 4 5 6 5 5 6 8 9 8 9 10 10 10 9 8 8 7 6 4 3 2 1 1 1 2 1 1 2 2 1 0 1 2 2 2 3 4 4 4 6 10 14 18 19 17 18 21 22 22 21 21 20 19 18 17 16 16 16 16 16 16 16 16 16 16 15 16 16 16 17 17 18 17 18 18 18 18 19 20 20 21 21 20
5 6 7 8 8 7 6 5 5 7 10 11 11 10 10 9 8 7 7 7 6 4 3 3 2 2 2 1 1 0 1 2 2 1 2 3 3 3 2 4 6 7 10 15 19 21 23 23 22 22 24 24 23 22 21 20 20 19 18 17 17 17 16 16 16 16 16 16 16 16 16 17 17 17 18 17 17 18 18 18 17 18 20 21 21 21 21
5 6 8 10 12 13 13 12 13 13 13 13 12 10 9 9 9 8 7 7 7 6 5 4 3 2 1 1 1 2 2 1 0 1 3 4 4 6 7 9 12 16 21 24 25 25 25 26 24 23 23 23 23 22 21 21 21 20 18 17 17 17 16 17 16 16 17 17 17 16 17 17 17 18 18 18 17 18 19 18 18 19 20 21 22 22 21
Wind_Direction
20 18 18 16 16 15 12 13 14 14 17 22 47 79 64 66 53 20 28 56 75 82 81 25 42 71 90 101 67 60 72 49 34 28 26 30 31 53 62 42 48 49 12 267 16 29 39 22 27 55 63 53 15 343 354 359 328 311 351 52 1 327 311 318 323 41 124 141 146 165 174 125 87 60 34 7 351 327 298 311 334 323 337 353 295 296 41
24 21 20 18 17 17 16 16 17 18 22 28 50 93 84 72 59 40 37 59 88 81 87 102 80 89 129 99 56 58 65 45 34 29 25 27 24 51 62 38 33 36 310 17 29 11 37 56 43 51 59 34 353 341 357 8 355 350 21 341 338 360 29 328 333 353 84 162 170 203 203 50 40 37 25 24 1 300 272 245 281 283 10 1 303 300 21
25 22 21 20 18 19 18 18 18 19 22 27 46 101 102 79 62 50 48 65 88 90 102 123 118 128 114 87 36 42 68 49 43 53 53 47 44 54 62 13 6 24 207 93 50 23 22 45 51 45 25 357 333 338 350 3 358 358 313 281 318 5 15 350 5 8 353 340 334 337 333 337 16 34 15 13 7 331 306 280 294 326 12 336 290 298 357
25 22 21 20 19 19 19 19 19 20 23 28 41 83 98 77 59 45 46 60 72 77 88 105 113 126 110 88 33 25 69 54 43 56 64 53 49 52 43 352 311 25 35 102 63 36 33 56 70 43 352 322 311 331 341 5 0 355 14 353 338 140 61 28 21 325 315 325 332 356 345 314 331 18 5 5 7 338 305 298 331 337 312 303 192 312 320
23 21 21 20 20 21 20 20 21 23 25 27 42 72 81 68 53 10 32 55 60 61 61 64 79 110 99 91 34 23 40 28 27 47 57 49 49 63 53 31 14 12 5 61 73 39 43 62 56 21 318 287 293 314 306 10 9 7 19 7 13 168 42 41 339 276 273 305 322 349 2 358 39 29 9 10 8 6 37 56 13 327 298 303 50 322 307
22 22 22 22 22 22 22 23 24 27 30 32 50 69 71 83 95 72 72 67 33 42 48 48 60 70 66 89 69 29 47 53 34 26 38 48 34 39 66 36 23 1 312 339 77 48 64 60 25 328 345 307 314 338 232 11 17 28 43 16 33 161 7 71 208 272 253 258 295 291 43 81 81 57 33 22 17 32 65 107 115 7 312 298 311 306 298
22 22 22 22 23 23 24 26 27 30 35 39 59 77 84 101 103 78 83 89 73 76 68 57 65 58 44 65 57 29 55 66 55 340 333 42 23 15 66 30 7 2 324 283 85 37 57 70 32 248 17 335 330 11 66 348 9 21 41 26 28 290 4 95 217 271 237 203 334 220 176 136 104 71 49 32 31 51 59 194 213 319 292 283 295 296 292
21 22 22 22 23 24 25 29 29 33 37 44 65 86 100 110 107 99 99 89 59 54 61 58 70 53 29 53 48 21 56 65 94 12 5 26 10 12 80 85 14 14 21 59 78 27 18 60 63 199 183 31 322 5 24 303 352 15 43 1 355 355 20 86 212 265 230 167 118 150 175 161 135 97 60 32 24 92 7 253 268 300 287 283 291 292 289
23 24 23 23 25 25 27 30 30 33 40 49 69 89 103 110 114 112 106 82 19 27 45 24 67 53 22 46 75 25 55 64 114 71 37 40 20 5 82 122 65 34 40 60 65 24 25 73 59 190 174 53 76 53 44 259 309 3 36 339 350 5 16 90 311 321 350 149 165 175 162 157 155 138 32 12 355 274 277 269 275 297 297 296 294 293 301
26 27 28 28 29 28 29 32 31 32 41 52 70 96 108 110 115 114 107 87 8 14 25 358 56 85 26 36 64 45 72 133 162 111 65 47 33 19 147 168 114 57 53 57 47 25 98 108 92 113 115 99 97 91 79 71 11 1 44 3 11 358 340 53 341 328 1 63 307 221 178 184 156 113 12 344 302 276 268 261 272 285 286 291 298 308 338
30 33 34 32 32 32 31 33 34 33 41 52 67 93 110 114 119 110 103 95 18 12 25 20 47 95 289 60 79 65 77 97 89 65 69 34 26 36 114 164 128 75 71 70 81 109 117 117 115 115 110 100 92 84 77 67 50 37 28 184 99 61 10 68 359 322 326 329 322 216 190 324 16 105 96 301 276 268 263 278 293 291 257 251 290 307 324
36 37 37 35 34 34 33 35 35 34 42 52 60 82 100 113 131 121 104 106 29 22 53 60 46 70 104 97 92 72 73 78 72 77 89 78 48 52 80 132 119 93 126 129 117 117 116 114 121 122 106 91 88 75 63 57 48 41 40 45 150 88 64 111 72 304 301 325 335 330 348 13 88 129 79 309 265 242 257 276 283 273 238 239 267 283 301
41 39 39 37 36 36 35 37 36 35 44 54 58 73 90 104 126 121 107 105 73 10 77 98 66 72 89 97 94 88 91 95 89 83 83 81 62 53 62 75 96 130 139 133 121 121 122 117 146 206 258 321 214 98 55 49 37 32 39 38 18 69 110 136 43 323 295 331 354 340 351 53 156 209 281 314 257 250 284 288 270 218 204 229 255 285 303
43 42 41 39 38 39 37 37 38 38 47 55 59 72 93 106 116 118 111 107 90 355 99 110 82 71 79 91 101 102 103 104 98 85 78 78 72 60 66 83 118 142 146 143 131 129 160 135 151 269 276 327 224 211 113 67 41 29 33 32 24 48 142 228 29 37 343 297 274 280 291 215 180 207 200 101 307 304 309 304 276 181 175 208 270 295 305
44 44 45 42 40 40 37 36 38 42 51 57 61 75 93 102 104 112 118 118 120 103 69 94 144 110 86 91 114 121 112 109 108 95 86 85 81 75 82 99 130 156 163 164 135 94 128 233 43 359 344 342 284 276 269 128 66 54 44 36 36 41 32 338 336 40 5 280 288 298 294 298 127 153 155 155 292 293 263 276 280 170 157 188 288 291 304
47 47 46 42 40 37 35 38 42 47 55 57 63 79 86 91 98 107 117 118 117 110 30 102 137 126 106 100 110 118 130 142 144 126 107 103 93 88 97 106 126 164 175 167 75 77 80 89 149 94 356 224 233 283 307 326 347 122 120 68 52 46 37 42 58 46 54 309 326 310 266 303 92 142 159 191 287 231 192 256 285 162 169 241 286 288 302
50 51 47 41 40 37 35 42 48 52 56 58 64 81 84 85 96 108 119 114 105 97 118 133 132 125 115 113 112 111 128 139 151 169 122 127 134 114 117 125 125 154 174 169 45 69 86 73 127 187 267 194 234 289 294 324 328 291 204 38 47 43 9 18 48 47 109 231 316 260 245 294 117 148 175 307 193 172 205 301 324 160 206 266 280 291 304
54 52 48 43 42 41 41 48 56 56 57 58 61 76 84 87 92 104 120 112 102 93 110 111 111 114 111 126 135 129 140 148 148 146 89 104 149 137 138 154 144 153 177 183 7 72 97 87 182 189 193 171 226 295 272 273 310 291 299 326 8 44 354 7 46 47 175 215 281 271 265 224 135 158 211 161 161 179 259 320 350 156 265 290 290 299 306
57 52 49 47 47 48 48 53 60 61 59 55 55 71 79 80 88 99 114 110 106 106 108 102 100 100 99 104 109 105 111 131 139 145 118 118 167 145 135 147 144 137 158 152 127 92 103 174 221 193 213 202 199 286 276 240 246 244 309 311 304 53 347 293 278 293 188 197 254 274 282 161 152 174 211 169 187 279 315 331 333 315 306 310 305 304 306
60 53 51 50 50 51 50 52 56 58 57 49 43 68 79 76 80 86 91 108 108 105 99 94 95 94 93 93 95 93 92 98 114 132 127 130 156 154 147 158 151 151 160 137 131 181 181 181 181 189 227 244 113 195 254 242 227 207 162 239 218 158 324 297 265 229 264 273 261 298 315 164 158 179 248 174 202 309 322 319 314 305 301 309 308 303 303
61 55 54 54 54 54 51 52 55 55 56 51 32 60 80 74 69 73 78 119 111 104 99 96 94 90 87 85 83 85 82 78 89 100 92 97 133 160 184 246 126 144 171 137 118 181 192 146 142 200 221 184 117 212 247 256 253 247 99 223 211 188 202 306 267 199 235 303 263 322 9 149 181 246 274 236 259 294 304 302 299 297 300 307 307 302 300
62 58 57 56 56 55 52 53 56 55 57 54 34 47 75 74 69 76 90 122 106 102 103 100 93 87 86 83 77 75 74 70 74 84 87 91 96 92 81 84 84 105 152 142 100 66 159 151 147 181 177 176 186 187 250 273 282 351 136 221 220 192 189 282 259 211 229 270 267 276 298 292 275 271 269 270 285 297 300 293 287 292 298 302 303 301 299
63 59 59 57 56 56 54 54 56 55 57 55 44 51 71 76 76 81 90 99 98 98 97 94 90 84 80 79 74 70 69 66 65 68 73 86 93 78 66 81 74 77 147 174 244 155 152 149 133 150 185 193 159 141 220 241 256 289 204 215 231 202 178 166 201 239 268 268 261 263 275 284 282 279 281 287 294 300 301 292 283 286 296 300 303 303 301
65 61 61 59 57 57 56 56 56 56 58 57 53 56 67 76 79 80 79 92 101 101 91 82 86 84 79 77 74 70 66 63 63 63 59 69 90 83 56 88 103 94 129 178 189 151 145 131 109 140 230 187 160 155 267 229 215 187 185 224 250 196 183 194 224 247 287 272 238 236 263 278 282 284 286 292 298 299 297 292 288 292 298 301 304 305 304
66 63 63 62 60 58 57 57 57 57 57 57 57 59 65 69 70 68 69 87 105 110 100 84 84 86 85 81 76 71 68 63 61 61 60 64 74 80 77 88 105 114 135 153 155 163 163 125 118 157 225 188 181 192 299 232 207 171 193 263 282 172 180 212 233 214 239 266 266 271 281 282 282 281 280 286 297 299 297 296 297 299 302 305 308 309 308
67 65 64 63 61 58 56 55 56 56 56 56 56 58 61 66 67 65 66 79 94 100 100 97 95 93 90 83 78 74 70 66 63 63 64 62 62 70 78 77 79 104 131 129 149 187 177 123 130 197 229 183 188 196 235 231 190 174 230 250 149 148 170 200 223 233 254 266 272 281 286 280 270 270 280 291 299 301 301 302 303 304 306 308 309 309 308
68 65 63 62 59 55 52 49 48 52 54 54 55 56 57 61 63 61 60 61 71 89 101 118 127 113 98 87 84 79 70 67 64 57 56 58 56 55 64 63 54 100 176 181 195 203 184 134 161 200 160 166 176 173 235 251 184 231 266 208 161 164 183 174 180 258 271 273 283 293 293 285 277 282 295 301 303 304 304 303 304 306 306 307 307 307 309
68 65 63 62 57 52 49 42 36 40 47 50 52 53 53 56 57 55 58 57 52 99 122 126 130 123 106 91 85 80 68 60 57 50 45 45 41 35 39 39 13 292 251 251 236 206 201 197 171 156 152 163 171 156 102 182 204 263 261 203 191 202 212 191 196 248 269 283 296 292 277 279 287 294 298 300 303 305 304 303 304 305 305 307 307 306 309
68 65 63 61 58 55 52 46 39 37 36 40 47 45 46 50 50 49 56 56 49 91 117 120 121 118 112 104 85 72 53 30 29 27 20 17 16 12 9 1 348 325 276 249 226 204 200 186 172 168 170 171 176 188 166 168 213 256 237 210 211 225 234 229 233 248 264 280 290 289 279 278 285 291 296 299 302 305 304 303 305 305 305 306 306 305 309
68 65 64 62 60 60 56 52 49 45 41 42 45 39 39 45 44 44 52 56 48 75 109 116 120 118 111 103 67 30 3 341 339 335 329 329 330 327 324 321 315 306 285 256 236 231 218 190 181 183 179 170 169 173 143 156 237 263 242 225 228 240 247 247 247 251 262 276 284 284 282 282 285 290 295 298 302 305 304 303 305 306 306 306 305 306 309
66 66 65 63 62 61 59 56 51 46 47 50 51 46 41 42 41 40 46 51 47 56 91 103 112 120 112 89 55 17 338 307 301 311 311 301 296 291 285 287 292 283 270 262 250 233 211 192 180 171 174 180 181 178 168 170 258 267 243 232 237 246 253 259 260 258 262 272 279 281 282 284 287 292 296 299 304 307 305 304 306 306 306 305 305 307 310
69 67 62 61 60 54 54 56 50 41 41 49 56 62 65 57 48 44 43 45 44 49 85 102 103 109 171 113 80 25 352 314 277 284 300 294 281 275 270 270 276 275 264 256 245 220 201 194 179 168 174 182 173 148 154 168 227 251 247 241 249 259 263 265 263 261 263 269 273 276 279 283 288 292 295 300 306 307 305 305 306 306 306 305 306 309 311
70 64 54 54 52 44 44 49 46 38 33 40 53 63 63 57 51 44 40 45 47 46 62 96 103 98 287 249 230 308 351 340 283 275 292 284 266 267 272 266 262 263 254 241 234 221 201 187 172 171 183 187 174 153 212 223 240 253 258 257 259 267 269 267 265 265 268 272 272 270 274 283 290 294 296 301 305 305 304 304 304 304 304 304 306 309 310
64 59 53 48 41 37 37 36 34 31 26 30 44 54 53 52 51 44 41 45 48 47 53 67 94 150 281 301 231 260 335 340 311 287 296 282 260 261 270 264 253 250 244 236 235 229 204 184 174 173 178 180 179 176 240 248 254 258 257 253 258 265 269 270 272 274 275 276 275 274 278 285 290 294 299 302 303 303 302 302 302 302 302 302 305 308 305
57 50 45 36 29 26 22 17 17 17 12 14 26 35 36 39 42 42 42 43 46 58 57 51 64 103 320 340 328 303 329 333 320 299 298 288 273 271 270 262 248 238 243 237 221 207 189 179 184 188 169 165 204 221 235 254 260 253 240 242 254 262 264 269 276 280 279 279 279 280 284 288 292 296 300 301 300 300 301 301 301 300 299 300 304 304 300
46 33 22 14 9 3 360 1 1 356 357 4 8 12 18 20 22 35 44 43 46 64 81 72 82 102 349 300 285 315 330 334 322 307 298 288 285 280 266 257 255 257 265 258 219 209 191 182 193 210 137 153 217 232 239 252 255 243 237 249 264 272 272 273 279 282 283 283 283 285 288 291 293 296 298 297 298 298 298 299 300 298 296 299 301 299 296
32 19 7 360 351 344 348 353 350 346 350 353 347 342 347 353 356 14 33 35 45 57 66 82 118 141 207 236 288 320 331 332 324 317 310 307 310 295 256 264 300 281 282 294 265 189 185 184 199 248 219 227 244 252 258 263 262 252 251 262 276 282 280 277 276 279 282 284 286 290 293 293 294 296 297 296 296 296 296 298 299 296 294 296 298 296 294
25 10 1 357 353 347 345 346 345 342 340 341 341 338 340 341 338 349 6 16 42 49 47 61 105 149 217 250 304 328 334 330 327 330 334 336 332 323 274 345 330 297 291 289 213 192 203 188 158 295 257 255 260 265 268 268 263 257 258 268 279 283 280 276 276 277 278 281 287 292 295 294 296 298 298 296 296 296 297 298 297 294 294 296 296 294 293
8 358 354 353 351 348 344 341 339 332 327 334 337 320 326 345 352 330 350 5 33 37 32 44 88 136 254 272 303 330 338 330 322 327 344 343 337 336 352 2 357 343 324 303 165 167 273 260 31 318 276 266 266 270 271 267 258 254 256 265 275 278 276 274 276 278 279 283 289 294 295 295 297 299 298 297 298 298 298 299 297 295 296 296 294 293 294
346 341 340 337 337 339 335 332 333 328 319 329 341 327 345 15 28 360 345 4 39 37 21 20 14 302 305 294 295 320 331 327 313 293 306 310 295 303 331 349 2 351 304 273 322 49 279 275 311 297 258 256 264 268 266 260 257 257 260 267 275 276 274 273 276 279 283 288 293 296 297 296 297 298 297 298 299 300 300 300 298 297 297 296 295 295 296
341 335 332 323 324 332 329 326 331 330 314 310 343 353 2 8 359 351 6 31 330 311 337 344 325 309 312 307 291 290 309 318 305 273 284 300 301 309 309 313 349 360 254 255 329 39 83 272 310 251 252 261 266 260 252 258 266 270 274 278 279 275 272 273 275 278 285 292 296 299 301 299 299 299 299 299 300 301 301 301 299 298 298 298 296 297 297
344 331 326 320 317 321 322 324 336 337 321 323 6 12 6 339 335 349 14 257 265 297 311 296 293 313 320 315 300 287 295 311 303 268 270 314 316 312 302 345 2 355 237 265 351 40 25 276 262 256 264 267 258 248 259 273 278 279 280 283 282 276 272 274 276 279 286 293 297 300 302 302 302 303 302 301 303 304 303 303 301 300 300 299 297 297 298
347 330 323 317 315 318 322 329 340 349 21 57 26 352 341 339 336 334 299 271 249 243 267 278 293 315 322 320 310 293 282 283 285 274 270 301 311 356 54 39 15 226 255 326 33 85 231 247 236 247 262 258 244 261 282 286 283 282 282 282 281 276 272 273 276 280 286 293 298 302 304 305 305 305 304 305 307 307 306 305 304 302 301 299 298 298 297
348 332 319 304 307 328 329 315 332 6 46 58 72 128 324 324 301 209 260 279 246 226 258 278 283 297 309 312 307 288 264 264 277 267 274 301 326 46 83 261 254 259 301 345 32 230 251 247 247 255 262 262 267 285 297 294 287 284 283 282 279 276 273 273 276 281 286 292 297 302 306 308 308 308 308 309 309 308 308 308 305 303 302 301 299 298 296
339 329 324 306 322 342 332 295 329 7 353 228 178 163 189 252 249 219 240 268 262 259 281 290 288 294 310 316 303 264 242 272 273 260 295 348 359 229 227 245 295 357 359 314 272 277 271 254 257 260 262 267 283 299 305 302 295 287 281 280 280 277 274 274 276 280 286 291 297 302 308 311 311 311 312 312 312 311 311 310 306 304 303 302 301 299 295
330 321 334 358 327 343 4 184 338 349 197 205 208 202 215 242 257 257 264 273 271 271 284 295 295 298 311 317 296 259 266 282 264 246 80 79 235 257 264 281 327 2 25 272 270 259 242 256 268 264 258 276 304 311 310 307 301 291 284 284 283 278 275 275 277 280 285 290 296 303 309 311 312 313 314 315 315 315 314 312 308 306 304 304 303 300 294
311 302 333 22 259 282 219 208 232 237 223 231 249 258 261 268 275 277 277 277 274 275 283 292 297 300 301 292 259 255 270 302 215 223 181 167 235 286 348 359 284 206 196 236 251 240 245 275 284 277 274 296 311 315 313 309 304 297 291 287 283 277 275 276 277 280 283 288 295 302 308 311 312 314 315 317 319 319 317 313 309 307 306 305 303 299 294
296 277 281 235 211 210 207 220 240 255 261 266 272 274 272 273 278 282 281 276 272 272 277 282 288 294 296 262 229 253 296 79 221 223 189 150 298 313 352 336 283 241 218 227 227 230 270 293 296 293 297 307 314 315 313 311 306 299 293 288 284 279 277 277 278 280 282 286 293 301 305 308 311 314 316 319 322 323 320 315 312 310 307 304 301 298 296
282 258 244 232 226 229 235 248 269 278 275 271 272 274 275 276 278 279 278 274 267 263 269 279 281 271 252 193 50 24 216 204 203 169 62 6 267 215 153 275 274 264 237 210 220 256 292 304 302 297 302 310 314 315 314 312 306 299 294 290 285 280 277 277 279 280 281 285 292 298 302 305 310 313 315 319 323 324 322 320 317 313 308 304 301 300 298
268 249 238 234 245 257 255 256 270 276 272 270 272 273 277 282 283 278 273 267 254 243 247 264 261 193 142 84 34 359 244 202 165 119 251 237 205 179 197 241 241 233 230 240 259 287 307 313 306 300 304 312 315 314 313 311 306 300 295 288 283 280 278 278 279 281 282 284 289 294 298 303 307 310 313 318 321 323 325 325 321 315 310 306 304 303 302
257 247 240 237 241 247 246 245 257 270 277 284 287 283 278 281 286 284 269 248 227 208 201 203 177 109 77 33 299 241 183 169 143 138 239 230 186 143 185 228 226 239 268 283 293 306 315 315 308 304 306 311 313 313 312 310 306 301 295 287 283 280 279 278 280 281 282 284 287 291 296 301 304 307 311 315 318 321 326 330 326 318 314 312 308 306 305
244 246 251 255 256 256 255 259 268 277 282 284 285 282 276 277 283 283 262 229 211 204 201 190 163 112 73 232 193 138 131 152 205 263 249 229 196 185 212 245 264 276 286 295 303 309 313 313 310 308 307 309 311 312 311 309 307 304 297 289 284 281 279 280 281 282 282 284 288 291 294 298 302 304 308 313 316 319 325 331 329 322 319 318 314 309 307
Height
1553 1551 1550 1548 1547 1545 1544 1542 1540 1538 1536 1535 1533 1533 1533 1534 1536 1536 1533 1533 1532 1530 1540 1551 1552 1555 1559 1560 1561 1562 1562 1563 1564 1563 1564 1563 1563 1563 1564 1566 1566 1566 1567 1567 1566 1566 1568 1568 1568 1569 1572 1573 1573 1574 1573 1572 1571 1569 1565 1565 1566 1564 1563 1559 1550 1549 1554 1558 1560 1562 1561 1559 1559 1563 1568 1569 1569 1569 1565 1561 1560 1557 1554 1554 1550 1545 1555
1553 1552 1550 1549 1547 1546 1544 1542 1540 1539 1537 1535 1534 1534 1535 1536 1537 1536 1534 1534 1532 1533 1543 1551 1555 1558 1560 1560 1562 1563 1564 1565 1565 1565 1565 1565 1565 1564 1566 1567 1566 1567 1568 1567 1567 1568 1568 1570 1571 1572 1573 1573 1573 1574 1573 1572 1571 1569 1567 1567 1566 1563 1563 1560 1553 1549 1551 1552 1554 1555 1556 1558 1562 1567 1571 1574 1575 1575 1571 1569 1564 1559 1560 1563 1557 1547 1553
1554 1553 1551 1550 1548 1546 1544 1542 1541 1539 1537 1536 1535 1535 1535 1536 1538 1538 1538 1535 1534 1538 1545 1549 1553 1558 1559 1561 1564 1564 1565 1567 1567 1566 1566 1567 1567 1566 1567 1568 1567 1568 1568 1567 1569 1569 1567 1569 1573 1574 1574 1573 1573 1573 1572 1572 1571 1570 1570 1569 1567 1565 1565 1563 1559 1558 1558 1554 1554 1556 1559 1562 1565 1570 1574 1575 1576 1575 1570 1564 1557 1556 1563 1567 1560 1552 1554
1555 1553 1552 1550 1548 1546 1545 1543 1541 1539 1538 1536 1535 1535 1535 1536 1539 1541 1542 1539 1539 1543 1549 1549 1551 1556 1558 1561 1566 1566 1566 1568 1568 1567 1567 1568 1568 1568 1568 1569 1568 1568 1568 1568 1570 1571 1570 1570 1573 1576 1576 1573 1573 1573 1572 1572 1571 1570 1570 1569 1568 1569 1569 1569 1566 1564 1563 1561 1562 1567 1569 1567 1568 1574 1577 1576 1577 1577 1571 1562 1559 1565 1569 1563 1560 1563 1563
1555 1554 1552 1550 1549 1547 1545 1543 1542 1540 1538 1537 1536 1536 1536 1538 1543 1546 1545 1544 1545 1548 1551 1552 1553 1556 1557 1561 1568 1569 1568 1569 1568 1568 1568 1568 1569 1569 1570 1570 1569 1569 1569 1568 1569 1572 1572 1572 1574 1578 1578 1575 1574 1572 1572 1572 1571 1570 1570 1569 1569 1566 1567 1574 1575 1570 1568 1569 1571 1573 1573 1571 1574 1579 1580 1577 1577 1576 1572 1568 1570 1574 1571 1560 1559 1568 1567
1556 1554 1552 1551 1549 1547 1546 1544 1543 1541 1539 1538 1537 1537 1537 1540 1546 1549 1547 1548 1552 1553 1554 1556 1557 1557 1558 1564 1569 1569 1569 1570 1569 1569 1569 1569 1569 1569 1570 1572 1572 1572 1572 1569 1570 1573 1573 1574 1578 1580 1579 1577 1574 1571 1572 1572 1570 1571 1570 1569 1570 1566 1566 1576 1579 1573 1572 1575 1575 1574 1574 1575 1579 1580 1579 1579 1579 1577 1576 1577 1577 1577 1574 1565 1561 1566 1566
1556 1555 1553 1551 1550 1548 1547 1545 1544 1542 1540 1540 1538 1538 1540 1542 1546 1549 1549 1552 1557 1558 1558 1559 1558 1558 1560 1565 1570 1570 1570 1572 1573 1573 1570 1569 1570 1569 1571 1574 1574 1574 1573 1570 1572 1575 1572 1574 1579 1581 1580 1580 1577 1574 1572 1571 1571 1572 1570 1571 1572 1568 1567 1578 1581 1574 1572 1575 1575 1575 1575 1577 1580 1581 1579 1579 1579 1579 1579 1578 1577 1578 1576 1569 1565 1566 1566
1557 1555 1554 1552 1551 1549 1548 1546 1545 1543 1542 1541 1539 1539 1541 1542 1545 1548 1549 1553 1558 1559 1560 1560 1559 1560 1563 1566 1571 1573 1572 1572 1574 1575 1573 1571 1572 1572 1573 1576 1576 1575 1574 1572 1574 1577 1576 1575 1579 1581 1580 1580 1580 1579 1577 1575 1574 1572 1572 1574 1572 1567 1568 1579 1581 1570 1567 1574 1577 1576 1575 1575 1577 1579 1579 1579 1578 1579 1580 1578 1577 1578 1574 1569 1570 1570 1565
1558 1556 1555 1553 1552 1550 1549 1547 1546 1544 1543 1542 1541 1541 1542 1543 1545 1546 1548 1555 1561 1560 1561 1561 1560 1563 1567 1569 1572 1573 1573 1573 1574 1575 1576 1575 1575 1575 1575 1576 1577 1576 1576 1576 1578 1580 1580 1579 1580 1581 1580 1579 1579 1580 1579 1579 1576 1573 1576 1576 1574 1571 1571 1578 1577 1562 1558 1571 1575 1573 1576 1577 1577 1577 1578 1579 1579 1578 1578 1577 1576 1576 1574 1572 1572 1568 1562
1559 1557 1556 1554 1552 1551 1549 1548 1547 1545 1544 1543 1542 1543 1544 1544 1546 1546 1546 1555 1564 1563 1563 1562 1561 1566 1572 1572 1573 1573 1573 1575 1574 1574 1577 1577 1576 1577 1577 1576 1577 1577 1578 1579 1580 1580 1580 1580 1580 1580 1580 1580 1580 1580 1580 1580 1577 1576 1578 1578 1581 1581 1574 1575 1578 1564 1556 1565 1572 1574 1575 1569 1568 1574 1578 1580 1580 1578 1577 1575 1573 1573 1574 1573 1569 1564 1563
1560 1558 1556 1555 1553 1552 1551 1549 1548 1547 1545 1545 1544 1544 1545 1544 1546 1547 1546 1555 1565 1565 1564 1564 1565 1570 1574 1573 1573 1574 1574 1575 1575 1574 1576 1578 1577 1577 1577 1576 1577 1578 1580 1581 1581 1580 1580 1581 1581 1581 1581 1581 1581 1581 1580 1579 1579 1578 1578 1577 1582 1584 1577 1578 1583 1571 1559 1563 1569 1569 1564 1556 1560 1574 1580 1580 1579 1578 1577 1573 1570 1570 1571 1570 1567 1565 1567
1561 1559 1557 1556 1554 1553 1552 1550 1549 1548 1546 1546 1545 1545 1546 1545 1546 1547 1546 1555 1567 1567 1565 1569 1571 1572 1574 1573 1573 1575 1575 1575 1576 1575 1576 1578 1578 1577 1577 1577 1576 1578 1580 1581 1580 1581 1581 1581 1582 1582 1582 1581 1581 1581 1580 1580 1580 1579 1578 1576 1578 1578 1578 1582 1587 1578 1568 1568 1567 1559 1553 1558 1571 1579 1579 1579 1579 1578 1576 1571 1567 1568 1569 1569 1568 1568 1568
1562 1560 1558 1557 1556 1554 1553 1551 1550 1549 1548 1547 1546 1546 1546 1546 1547 1548 1547 1554 1567 1570 1568 1572 1574 1573 1573 1574 1574 1575 1576 1576 1577 1577 1577 1578 1578 1578 1577 1577 1577 1579 1580 1581 1581 1582 1582 1583 1583 1581 1581 1581 1581 1580 1580 1581 1581 1580 1579 1578 1576 1575 1577 1580 1583 1579 1572 1572 1572 1563 1559 1569 1579 1578 1577 1579 1578 1577 1576 1569 1563 1566 1568 1568 1568 1568 1568
1562 1561 1560 1559 1557 1556 1555 1553 1552 1551 1549 1548 1548 1547 1547 1547 1548 1549 1548 1553 1567 1573 1570 1571 1574 1574 1574 1575 1575 1576 1577 1577 1577 1578 1578 1578 1579 1579 1578 1578 1579 1579 1580 1581 1582 1581 1581 1583 1582 1579 1578 1578 1577 1577 1579 1581 1582 1581 1579 1578 1577 1576 1576 1575 1577 1580 1579 1578 1576 1569 1565 1569 1575 1576 1577 1579 1578 1578 1578 1573 1565 1564 1567 1568 1568 1567 1567
1564 1562 1561 1560 1559 1557 1556 1554 1553 1552 1550 1549 1549 1548 1548 1549 1549 1550 1549 1551 1562 1571 1572 1571 1573 1575 1575 1575 1575 1576 1577 1578 1578 1579 1579 1579 1580 1579 1579 1580 1579 1580 1581 1581 1581 1582 1582 1581 1580 1576 1575 1576 1578 1577 1576 1578 1580 1581 1581 1581 1578 1577 1577 1573 1573 1581 1586 1581 1574 1569 1564 1561 1566 1572 1576 1578 1578 1577 1580 1578 1568 1563 1566 1568 1567 1567 1565
1565 1564 1563 1562 1560 1558 1557 1556 1554 1553 1552 1551 1551 1550 1550 1550 1550 1551 1551 1550 1555 1566 1573 1573 1573 1574 1575 1575 1576 1576 1576 1577 1578 1578 1579 1580 1580 1580 1580 1580 1580 1580 1581 1581 1582 1583 1582 1582 1583 1581 1579 1582 1584 1580 1576 1576 1578 1579 1580 1581 1579 1579 1581 1578 1576 1583 1589 1583 1574 1573 1569 1563 1565 1572 1576 1577 1577 1576 1579 1574 1563 1560 1566 1567 1565 1565 1564
1567 1565 1564 1563 1561 1560 1559 1557 1556 1555 1554 1553 1553 1552 1552 1552 1552 1552 1553 1551 1555 1566 1574 1573 1573 1574 1574 1575 1576 1576 1576 1577 1577 1577 1577 1578 1580 1580 1580 1580 1580 1580 1581 1581 1582 1583 1582 1585 1587 1583 1582 1586 1587 1581 1578 1580 1579 1577 1577 1579 1581 1581 1582 1580 1578 1585 1592 1589 1579 1573 1569 1565 1568 1573 1574 1575 1575 1577 1576 1565 1554 1559 1567 1564 1563 1564 1562
1568 1567 1566 1565 1563 1562 1561 1559 1558 1557 1556 1555 1556 1554 1553 1554 1554 1554 1554 1552 1557 1568 1575 1573 1573 1574 1574 1574 1575 1575 1576 1577 1576 1576 1577 1578 1579 1579 1579 1580 1580 1579 1580 1582 1582 1581 1581 1584 1586 1582 1581 1586 1587 1582 1581 1582 1581 1581 1581 1582 1584 1586 1588 1588 1586 1587 1592 1591 1582 1572 1566 1566 1570 1572 1573 1574 1575 1574 1568 1559 1555 1562 1564 1562 1562 1562 1560
1570 1569 1568 1567 1565 1564 1563 1561 1560 1559 1558 1558 1557 1556 1555 1555 1555 1556 1556 1554 1557 1567 1574 1573 1573 1575 1574 1574 1575 1575 1575 1576 1576 1576 1577 1576 1578 1579 1579 1579 1579 1579 1580 1580 1581 1582 1581 1582 1589 1590 1584 1584 1585 1584 1582 1581 1582 1584 1586 1585 1584 1586 1588 1591 1590 1587 1589 1592 1587 1574 1564 1565 1570 1571 1571 1573 1573 1567 1560 1558 1560 1562 1561 1560 1561 1559 1558
1571 1570 1569 1568 1567 1566 1565 1563 1562 1561 1560 1559 1559 1558 1557 1558 1558 1557 1558 1557 1558 1566 1574 1575 1574 1575 1575 1575 1575 1575 1576 1576 1576 1576 1576 1575 1577 1578 1576 1576 1577 1579 1579 1576 1579 1584 1582 1579 1588 1592 1585 1583 1586 1584 1583 1583 1584 1585 1586 1586 1587 1586 1583 1583 1586 1586 1586 1590 1586 1573 1563 1564 1569 1570 1569 1570 1568 1563 1559 1560 1561 1560 1559 1559 1558 1556 1556
1573 1572 1571 1570 1569 1568 1567 1565 1564 1562 1561 1561 1562 1560 1558 1559 1560 1558 1559 1559 1558 1564 1574 1577 1576 1576 1576 1576 1577 1576 1577 1577 1576 1577 1576 1576 1578 1577 1574 1574 1576 1577 1578 1575 1576 1582 1582 1582 1587 1588 1584 1584 1586 1584 1584 1583 1581 1585 1589 1587 1587 1587 1582 1579 1583 1585 1583 1580 1575 1567 1561 1564 1567 1567 1566 1566 1563 1561 1561 1560 1559 1558 1557 1557 1555 1554 1553
1574 1574 1573 1572 1571 1570 1569 1567 1566 1565 1563 1563 1564 1562 1560 1561 1561 1561 1562 1561 1559 1564 1574 1577 1577 1578 1578 1578 1578 1578 1577 1577 1577 1577 1577 1577 1578 1578 1576 1577 1577 1576 1577 1577 1576 1578 1580 1582 1585 1584 1582 1584 1584 1586 1589 1583 1576 1581 1589 1585 1581 1581 1580 1578 1580 1582 1579 1573 1566 1562 1561 1563 1564 1563 1563 1562 1561 1560 1560 1559 1557 1557 1556 1554 1553 1552 1550
1576 1575 1574 1574 1573 1572 1571 1570 1568 1567 1566 1566 1566 1564 1562 1563 1564 1564 1565 1564 1563 1568 1575 1577 1578 1579 1579 1579 1579 1579 1579 1579 1578 1578 1578 1577 1578 1578 1577 1578 1578 1577 1577 1577 1576 1576 1577 1579 1581 1580 1580 1581 1582 1584 1589 1585 1580 1581 1584 1581 1578 1579 1580 1581 1580 1579 1576 1569 1562 1562 1562 1561 1561 1561 1560 1560 1559 1558 1557 1556 1555 1555 1553 1552 1551 1549 1548
1577 1577 1576 1575 1575 1574 1573 1572 1571 1569 1569 1568 1568 1566 1565 1565 1566 1566 1566 1566 1565 1569 1576 1579 1580 1580 1581 1581 1580 1580 1580 1580 1579 1579 1579 1578 1578 1578 1578 1578 1577 1577 1577 1577 1577 1577 1577 1578 1581 1580 1578 1580 1580 1579 1579 1579 1580 1581 1579 1577 1578 1579 1579 1580 1578 1578 1575 1566 1559 1560 1561 1559 1559 1559 1557 1557 1557 1555 1555 1554 1553 1552 1551 1549 1548 1546 1545
1579 1578 1578 1577 1577 1576 1575 1574 1573 1572 1571 1570 1569 1569 1568 1568 1568 1568 1568 1568 1567 1569 1575 1581 1582 1582 1582 1582 1581 1581 1581 1580 1580 1580 1579 1579 1579 1578 1578 1578 1577 1577 1577 1577 1577 1578 1576 1577 1580 1579 1576 1578 1580 1578 1577 1576 1577 1579 1578 1575 1574 1577 1578 1577 1575 1575 1572 1563 1557 1559 1559 1556 1556 1556 1555 1555 1554 1553 1552 1551 1550 1549 1548 1546 1545 1544 1542
1580 1580 1579 1579 1578 1578 1577 1576 1575 1574 1573 1572 1572 1571 1570 1569 1570 1569 1569 1569 1569 1570 1575 1581 1583 1583 1583 1582 1582 1582 1582 1581 1581 1580 1579 1579 1579 1578 1578 1578 1577 1577 1578 1577 1577 1577 1577 1577 1579 1578 1577 1578 1579 1579 1579 1578 1577 1578 1577 1573 1573 1576 1576 1574 1572 1571 1567 1560 1556 1557 1556 1553 1553 1553 1553 1553 1552 1551 1550 1548 1547 1546 1545 1543 1542 1541 1539
1582 1581 1581 1580 1580 1579 1578 1578 1577 1576 1575 1575 1574 1573 1572 1571 1571 1571 1570 1570 1570 1571 1575 1580 1583 1583 1583 1583 1583 1582 1582 1582 1581 1581 1580 1580 1579 1579 1578 1578 1578 1577 1577 1577 1577 1577 1577 1576 1577 1577 1577 1578 1579 1579 1580 1579 1579 1580 1576 1572 1573 1573 1571 1570 1571 1568 1562 1556 1555 1556 1554 1552 1551 1551 1551 1550 1549 1548 1547 1546 1544 1543 1542 1541 1540 1538 1537
1583 1583 1582 1581 1581 1580 1580 1579 1578 1578 1577 1577 1576 1575 1574 1573 1573 1572 1572 1571 1571 1571 1573 1579 1582 1583 1583 1583 1583 1582 1582 1582 1581 1581 1581 1580 1579 1579 1578 1578 1578 1577 1577 1577 1576 1576 1576 1575 1575 1576 1577 1577 1577 1579 1579 1579 1579 1577 1571 1567 1566 1565 1563 1563 1564 1562 1556 1552 1553 1554 1554 1552 1550 1549 1549 1548 1547 1546 1545 1543 1542 1541 1539 1538 1537 1536 1534
1584 1584 1583 1583 1582 1582 1581 1580 1580 1579 1578 1578 1578 1577 1576 1575 1575 1574 1573 1573 1573 1573 1574 1578 1582 1583 1583 1583 1583 1582 1582 1582 1581 1581 1581 1580 1579 1579 1578 1578 1577 1577 1576 1576 1575 1575 1575 1574 1574 1575 1575 1575 1576 1576 1577 1578 1576 1568 1561 1559 1559 1558 1557 1557 1557 1555 1553 1551 1551 1552 1551 1550 1548 1547 1546 1545 1544 1543 1542 1541 1540 1538 1537 1535 1534 1533 1532
1585 1585 1584 1584 1584 1583 1582 1582 1581 1580 1580 1579 1578 1578 1577 1576 1576 1576 1575 1575 1575 1575 1575 1577 1581 1583 1583 1583 1583 1582 1582 1582 1581 1580 1580 1579 1579 1578 1578 1577 1577 1576 1575 1575 1574 1574 1574 1573 1573 1574 1573 1574 1575 1576 1576 1578 1574 1562 1554 1554 1555 1554 1554 1554 1553 1553 1551 1550 1549 1549 1548 1547 1546 1545 1543 1543 1542 1541 1539 1538 1537 1535 1534 1532 1531 1530 1529
1586 1586 1586 1585 1585 1584 1584 1583 1582 1582 1581 1580 1579 1578 1578 1578 1578 1577 1577 1576 1576 1576 1575 1577 1580 1583 1583 1583 1583 1582 1582 1581 1581 1580 1579 1579 1578 1578 1577 1576 1576 1575 1574 1574 1573 1573 1572 1571 1572 1573 1572 1573 1575 1574 1575 1576 1571 1558 1551 1552 1552 1551 1551 1551 1550 1550 1549 1548 1548 1547 1545 1544 1543 1542 1541 1540 1538 1537 1536 1535 1534 1533 1531 1530 1528 1527 1526
1587 1587 1587 1586 1586 1585 1585 1584 1584 1583 1583 1582 1580 1580 1580 1580 1579 1579 1578 1577 1577 1577 1576 1577 1580 1583 1583 1583 1582 1582 1581 1581 1580 1579 1579 1578 1577 1576 1576 1575 1575 1574 1573 1573 1572 1571 1571 1571 1571 1572 1572 1573 1574 1574 1575 1573 1564 1553 1548 1549 1549 1548 1549 1548 1548 1548 1547 1546 1546 1544 1542 1541 1541 1540 1539 1537 1535 1534 1533 1532 1531 1530 1528 1527 1526 1524 1523
1588 1588 1587 1587 1587 1586 1586 1585 1584 1584 1584 1583 1582 1581 1581 1581 1580 1579 1579 1578 1578 1577 1577 1578 1581 1583 1583 1582 1582 1582 1581 1580 1580 1579 1578 1577 1576 1576 1575 1574 1574 1573 1572 1572 1571 1571 1570 1570 1571 1572 1572 1572 1572 1573 1572 1564 1554 1546 1545 1547 1547 1546 1546 1546 1545 1545 1544 1543 1543 1542 1540 1539 1538 1537 1536 1534 1533 1531 1530 1529 1528 1527 1526 1524 1523 1522 1520
1589 1589 1588 1588 1587 1587 1586 1586 1585 1585 1584 1584 1583 1582 1582 1581 1581 1580 1579 1579 1578 1578 1578 1579 1581 1583 1582 1582 1582 1581 1580 1580 1579 1578 1577 1575 1575 1575 1574 1573 1573 1573 1571 1571 1571 1570 1570 1570 1571 1571 1571 1571 1572 1572 1564 1551 1544 1543 1544 1545 1544 1544 1544 1543 1542 1542 1541 1541 1540 1539 1538 1537 1536 1534 1533 1532 1530 1529 1528 1526 1525 1524 1523 1522 1521 1520 1518
1589 1589 1589 1588 1588 1587 1587 1586 1586 1585 1585 1584 1583 1583 1582 1582 1581 1581 1580 1579 1579 1579 1579 1580 1582 1583 1582 1581 1581 1581 1580 1579 1578 1577 1576 1575 1574 1574 1574 1573 1572 1571 1570 1570 1570 1569 1570 1570 1570 1569 1570 1571 1570 1564 1553 1543 1540 1542 1542 1542 1542 1542 1541 1540 1540 1539 1539 1538 1537 1536 1535 1534 1533 1532 1530 1529 1528 1526 1525 1523 1522 1521 1520 1519 1518 1517 1516
1590 1590 1589 1589 1588 1588 1587 1587 1586 1586 1585 1584 1584 1583 1583 1582 1582 1581 1581 1580 1580 1579 1580 1581 1583 1584 1584 1582 1581 1580 1579 1578 1577 1576 1575 1574 1573 1573 1572 1572 1571 1570 1569 1569 1569 1569 1569 1570 1568 1568 1570 1567 1558 1548 1542 1540 1539 1540 1539 1539 1540 1539 1538 1538 1537 1537 1536 1535 1534 1533 1533 1531 1530 1529 1528 1526 1525 1524 1522 1521 1520 1518 1517 1516 1515 1514 1513
1590 1590 1589 1589 1588 1588 1587 1587 1586 1586 1585 1584 1584 1583 1583 1582 1582 1581 1581 1581 1581 1580 1580 1581 1583 1585 1585 1584 1583 1581 1579 1578 1577 1576 1575 1574 1573 1572 1572 1572 1571 1570 1569 1568 1568 1568 1569 1568 1568 1567 1563 1555 1545 1539 1538 1539 1538 1538 1538 1537 1537 1537 1536 1536 1535 1534 1534 1533 1532 1531 1530 1529 1527 1526 1525 1524 1522 1521 1519 1518 1517 1516 1514 1513 1512 1511 1510
1590 1590 1589 1589 1588 1588 1587 1587 1586 1585 1585 1584 1583 1583 1582 1582 1582 1581 1581 1581 1581 1581 1581 1582 1583 1584 1585 1584 1582 1581 1579 1578 1578 1576 1574 1574 1573 1572 1572 1572 1571 1570 1569 1568 1568 1569 1568 1568 1570 1568 1556 1544 1538 1536 1536 1536 1536 1536 1536 1535 1535 1534 1534 1533 1533 1532 1531 1530 1529 1528 1527 1526 1524 1523 1522 1521 1519 1518 1517 1515 1514 1513 1511 1510 1509 1508 1507
1590 1590 1589 1589 1588 1588 1587 1587 1586 1585 1585 1584 1583 1583 1583 1582 1581 1581 1581 1581 1581 1581 1582 1582 1583 1584 1584 1583 1582 1581 1579 1579 1578 1577 1576 1575 1574 1572 1572 1572 1571 1571 1569 1566 1567 1569 1566 1565 1570 1568 1553 1539 1535 1534 1533 1533 1534 1534 1533 1534 1533 1532 1532 1531 1531 1530 1529 1528 1527 1526 1525 1523 1522 1520 1519 1518 1517 1515 1514 1513 1511 1510 1509 1507 1506 1505 1504
1590 1590 1589 1589 1588 1588 1587 1586 1586 1585 1584 1584 1583 1583 1582 1582 1581 1582 1582 1582 1582 1582 1582 1582 1583 1583 1583 1582 1582 1581 1579 1579 1578 1577 1577 1576 1574 1574 1574 1573 1572 1572 1569 1565 1567 1569 1566 1563 1567 1563 1547 1534 1532 1533 1531 1532 1533 1532 1531 1532 1531 1530 1530 1529 1528 1527 1527 1526 1525 1524 1522 1521 1519 1518 1517 1515 1514 1513 1511 1510 1509 1507 1506 1505 1504 1502 1501
1590 1590 1589 1588 1588 1587 1586 1586 1585 1584 1584 1584 1583 1583 1583 1583 1583 1584 1584 1582 1582 1582 1583 1582 1582 1582 1582 1582 1581 1580 1579 1578 1578 1578 1577 1576 1575 1575 1574 1573 1573 1572 1568 1565 1568 1570 1567 1564 1564 1556 1540 1531 1531 1532 1531 1531 1531 1530 1530 1530 1528 1527 1528 1527 1526 1525 1524 1523 1522 1521 1520 1518 1517 1515 1514 1512 1511 1510 1509 1507 1506 1504 1503 1502 1501 1500 1498
1590 1589 1589 1588 1588 1587 1586 1586 1585 1584 1584 1583 1583 1584 1586 1586 1584 1584 1583 1582 1582 1582 1582 1582 1582 1582 1581 1581 1580 1579 1578 1578 1577 1577 1577 1576 1575 1575 1575 1576 1576 1571 1565 1566 1569 1570 1567 1564 1558 1545 1533 1529 1530 1530 1530 1530 1529 1528 1527 1527 1526 1525 1525 1524 1523 1523 1522 1521 1520 1519 1517 1516 1514 1513 1511 1510 1508 1507 1506 1504 1503 1502 1500 1499 1498 1497 1496
1589 1589 1588 1587 1587 1586 1586 1586 1585 1584 1585 1585 1584 1584 1586 1586 1586 1587 1585 1583 1583 1583 1582 1581 1581 1581 1580 1580 1579 1579 1578 1577 1577 1577 1577 1576 1575 1576 1576 1576 1574 1569 1567 1569 1570 1567 1563 1558 1548 1536 1529 1529 1530 1529 1529 1528 1527 1526 1525 1524 1523 1523 1522 1522 1521 1520 1519 1518 1517 1516 1515 1513 1512 1510 1509 1507 1506 1504 1503 1502 1500 1499 1498 1496 1495 1494 1493
1589 1588 1587 1586 1587 1586 1585 1585 1585 1584 1585 1587 1587 1586 1585 1585 1586 1587 1585 1582 1581 1581 1581 1580 1580 1580 1579 1579 1579 1577 1577 1577 1577 1577 1576 1576 1576 1576 1574 1571 1569 1568 1568 1568 1567 1564 1561 1553 1540 1530 1528 1529 1528 1527 1527 1526 1525 1524 1523 1521 1521 1520 1519 1519 1518 1517 1517 1516 1515 1513 1512 1511 1509 1508 1506 1505 1503 1502 1500 1499 1498 1496 1495 1494 1493 1492 1490
1588 1588 1586 1586 1587 1586 1584 1585 1586 1585 1584 1586 1588 1587 1585 1584 1583 1584 1582 1580 1580 1580 1580 1579 1579 1579 1579 1578 1577 1577 1577 1577 1576 1576 1576 1576 1575 1574 1571 1569 1569 1570 1569 1567 1564 1560 1554 1543 1532 1526 1526 1527 1526 1526 1525 1524 1522 1521 1520 1519 1518 1518 1517 1516 1516 1515 1514 1513 1512 1511 1510 1508 1506 1505 1504 1502 1501 1499 1498 1496 1495 1493 1492 1491 1490 1489 1488
1588 1588 1587 1586 1586 1585 1585 1586 1587 1585 1583 1584 1584 1584 1583 1581 1581 1581 1580 1579 1579 1579 1578 1578 1578 1578 1578 1578 1577 1576 1576 1576 1576 1576 1577 1576 1573 1570 1570 1570 1569 1567 1566 1563 1557 1548 1538 1530 1526 1526 1526 1525 1524 1524 1523 1521 1520 1519 1517 1516 1516 1515 1514 1514 1513 1512 1511 1511 1509 1508 1507 1506 1504 1503 1501 1500 1498 1497 1495 1494 1492 1491 1489 1488 1487 1486 1485
1588 1588 1587 1585 1585 1585 1585 1584 1583 1581 1581 1581 1580 1580 1580 1579 1579 1579 1579 1578 1577 1577 1577 1577 1577 1577 1577 1577 1577 1576 1576 1577 1576 1576 1577 1575 1572 1571 1571 1571 1568 1564 1559 1552 1544 1536 1530 1527 1525 1525 1524 1523 1523 1522 1520 1518 1517 1516 1514 1513 1513 1512 1511 1511 1510 1510 1509 1508 1507 1506 1505 1503 1502 1500 1499 1497 1496 1494 1492 1491 1489 1488 1486 1485 1484 1483 1482
1587 1587 1586 1585 1584 1583 1582 1580 1579 1579 1579 1579 1578 1578 1578 1577 1577 1577 1576 1576 1576 1576 1576 1576 1576 1576 1576 1577 1576 1576 1576 1576 1574 1574 1576 1575 1572 1568 1567 1565 1562 1560 1556 1547 1536 1529 1527 1525 1524 1523 1523 1522 1520 1519 1517 1516 1514 1513 1512 1511 1510 1509 1509 1508 1508 1507 1506 1505 1504 1503 1502 1501 1499 1498 1496 1495 1493 1492 1490 1488 1487 1485 1484 1482 1481 1480 1479
1587 1586 1585 1583 1582 1581 1580 1579 1579 1578 1577 1576 1576 1576 1575 1575 1575 1575 1574 1575 1575 1575 1575 1575 1575 1574 1575 1576 1576 1576 1576 1575 1573 1574 1576 1574 1569 1566 1565 1561 1554 1547 1543 1538 1532 1527 1524 1524 1523 1522 1521 1519 1518 1516 1515 1513 1512 1510 1509 1508 1507 1507 1506 1505 1505 1504 1504 1503 1502 1501 1500 1498 1497 1496 1494 1492 1491 1489 1488 1486 1484 1483 1481 1479 1478 1477 1476
1585 1584 1583 1581 1579 1578 1578 1578 1577 1576 1575 1574 1574 1574 1573 1573 1573 1573 1573 1573 1573 1573 1574 1574 1574 1574 1575 1576 1576 1574 1574 1574 1574 1574 1571 1567 1566 1567 1564 1556 1545 1537 1531 1529 1527 1525 1522 1522 1521 1519 1518 1517 1516 1514 1512 1510 1509 1508 1507 1506 1505 1504 1503 1503 1502 1502 1501 1500 1499 1498 1497 1496 1495 1493 1492 1490 1489 1487 1486 1484 1482 1480 1478 1477 1475 1474 1473
1583 1581 1580 1578 1577 1576 1576 1575 1574 1573 1573 1573 1572 1572 1572 1571 1571 1571 1571 1571 1572 1572 1573 1573 1573 1575 1575 1573 1570 1569 1569 1571 1574 1573 1567 1563 1565 1565 1557 1543 1534 1530 1527 1524 1524 1523 1521 1520 1519 1517 1515 1514 1512 1511 1509 1508 1506 1505 1504 1503 1502 1501 1501 1500 1499 1499 1498 1497 1497 1496 1495 1493 1492 1491 1490 1488 1486 1485 1483 1482 1480 1478 1476 1474 1472 1471 1470
1581 1579 1577 1576 1575 1575 1574 1574 1572 1572 1571 1571 1570 1570 1570 1570 1569 1569 1569 1569 1570 1571 1571 1571 1573 1573 1571 1568 1567 1568 1569 1569 1569 1566 1560 1556 1555 1553 1543 1533 1527 1525 1523 1521 1521 1521 1519 1518 1516 1514 1512 1511 1509 1508 1507 1505 1503 1502 1501 1500 1499 1498 1498 1497 1496 1496 1495 1494 1494 1493 1492 1491 1490 1488 1487 1486 1484 1482 1481 1479 1478 1475 1473 1472 1470 1468 1467